Dati Storici

Data ora Umidita' aria (%) Temperatura aria (°C) Rad globale (W/m²) Gonioanemometro (°) Tacoanemometro (m/s) Pioggia (mm)
19-06-2020 12:10 48.3 % 25.51 172.62 2.068 0 0
19-06-2020 12:00 48 % 25.384 193.039 2.902 0 0
19-06-2020 11:50 49.2 % 24.862 124.856 2.056 0 0
19-06-2020 11:40 48.7 % 24.152 136.565 3.477 0 0
19-06-2020 11:30 50.4 % 24.375 184.088 2.405 0 0
19-06-2020 11:20 51.5 % 24.674 200.031 1.284 0 0
19-06-2020 11:10 55.4 % 24.729 232.322 1.79 0 0
19-06-2020 11:00 59.3 % 23.789 143.63 0.883 0 0
19-06-2020 10:50 57.5 % 23.664 197.485 1.711 0 0
19-06-2020 10:40 59.4 % 23.821 224.136 2.049 0 0
19-06-2020 10:30 58.9 % 23.532 201.425 1.066 0 0
19-06-2020 10:20 59.8 % 23.072 203.556 2.94 0 0
19-06-2020 10:10 61.7 % 23.194 103.469 3.879 0 0
19-06-2020 10:00 63 % 23.204 159.252 2.381 0 0
19-06-2020 09:50 63.9 % 22.638 204.999 3.402 0 0
19-06-2020 09:40 66.8 % 23.38 104.847 1.068 0 0
19-06-2020 09:30 65.8 % 23.303 103.787 0.35 0 0
19-06-2020 09:20 67.6 % 22.665 72.258 1.692 0 0
19-06-2020 09:10 65 % 22.81 125.18 0.127 0 0
19-06-2020 09:00 66.6 % 23.436 167.42 0.581 0 0

I dati sono presentati in modo automatico a scopo informativo. In seguito a verifica i dati possono subire modifiche o essere invalidati e non riportati negli archivi definitivi.